Printer-friendly version

IAU Minor Planet Center

Minor Planet Center

(144900) 2004 VG64

Orbital Elements

The following orbital elements are taken from MPO124282
(144900) 2004 VG64
Epoch 2007 Oct. 27.0 TT = JDT 2454400.5                 MPC
M  96.14384              (2000.0)            P               Q
n   1.03452178     Peri.   43.87840     -0.36070549     +0.88770715
a   0.9682250      Node   208.91979     -0.93168534     -0.32878409
e   0.6554237      Incl.   36.27598     +0.04305785     +0.32229963
P   0.95           H   18.3           G   0.15           U   1
From 276 observations at 3 oppositions, 2004-2007, mean residual 0".53.
An explanation of the orbital elements is available.

These orbital elements are also available in forms suitable for loading into a number of popular planetarium-type software programs.


Ephemeris

The following ephemeris is at intervals of five days. A daily ephemeris covering the same time interval is also available.

Personalized ephemerides for this (and other) objects may be generated using the Minor Planet & Comet Ephemeris Service.

Date    TT    R. A. (2000) Decl.     Delta      r     Elong.  Phase     V
2009 10 26    05 54.72   -11 46.5    0.779    1.518   117.3    35.6    20.1
2009 10 31    05 45.93   -15 11.4    0.762    1.535   121.5    33.5    20.0
2009 11 05    05 35.21   -18 32.3    0.751    1.551   125.1    31.6    20.0
2009 11 10    05 22.62   -21 42.7    0.746    1.564   127.9    30.0    19.9
2009 11 15    05 08.35   -24 35.6    0.747    1.575   129.6    28.9    19.9
2009 11 20    04 52.79   -27 04.3    0.755    1.584   130.2    28.4    19.9
2009 11 25    04 36.51   -29 03.9    0.769    1.592   129.6    28.6    20.0
2009 11 30    04 20.14   -30 32.0    0.789    1.597   127.9    29.2    20.1
2009 12 05    04 04.35   -31 28.6    0.815    1.601   125.3    30.2    20.2
2009 12 10    03 49.67   -31 56.2    0.845    1.603   122.1    31.4    20.3
2009 12 15    03 36.53   -31 58.1    0.879    1.602   118.5    32.7    20.4
2009 12 20    03 25.20   -31 38.8    0.916    1.600   114.7    33.9    20.5
2009 12 25    03 15.79   -31 02.6    0.955    1.596   110.8    35.2    20.7
2009 12 30    03 08.28   -30 13.7    0.996    1.590   106.9    36.3    20.8
2010 01 04    03 02.54   -29 15.5    1.037    1.583   103.1    37.2    20.9

2010 04 04    04 11.09   -07 09.6    1.368    1.079    51.4    46.4    20.9
2010 04 09    04 20.42   -05 50.8    1.343    1.027    49.4    47.7    20.8
2010 04 14    04 30.19   -04 28.2    1.311    0.972    47.4    49.4    20.7
2010 04 19    04 40.36   -03 00.1    1.272    0.913    45.4    51.6    20.5
2010 04 24    04 50.90   -01 23.9    1.226    0.851    43.4    54.4    20.4
2010 04 29    05 01.70   +00 24.0    1.173    0.785    41.3    57.9    20.2
2010 05 04    05 12.57   +02 29.2    1.111    0.715    39.1    62.7    20.0
2010 05 09    05 23.15   +05 00.2    1.042    0.643    36.5    69.0    19.9
2010 05 14    05 32.67   +08 10.6    0.965    0.567    33.3    77.8    19.7

2010 06 23    03 55.12   +33 57.3    1.035    0.537    30.3    72.9    19.6
2010 06 28    04 01.37   +32 20.8    1.109    0.613    33.2    65.1    19.8
2010 07 03    04 09.92   +30 48.8    1.170    0.687    35.7    59.8    20.0
2010 07 08    04 19.49   +29 21.4    1.220    0.757    38.2    56.2    20.2
2010 07 13    04 29.46   +27 57.5    1.260    0.825    40.7    53.6    20.3
2010 07 18    04 39.45   +26 35.7    1.290    0.888    43.3    51.7    20.5
2010 07 23    04 49.30   +25 15.0    1.312    0.949    45.9    50.3    20.6
2010 07 28    04 58.90   +23 54.4    1.326    1.005    48.6    49.3    20.8
2010 08 02    05 08.18   +22 33.0    1.334    1.059    51.4    48.5    20.9
2010 08 07    05 17.11   +21 10.0    1.335    1.109    54.3    47.9    21.0
2010 08 12    05 25.64   +19 44.7    1.330    1.156    57.2    47.5    21.0

2010 10 01    06 22.20   +01 10.7    1.074    1.487    91.5    42.3    21.0
2010 10 06    06 23.85   -01 20.5    1.038    1.507    95.4    41.3    20.9
2010 10 11    06 24.43   -04 01.0    1.002    1.525    99.4    40.2    20.8
2010 10 16    06 23.81   -06 50.5    0.968    1.542   103.4    39.0    20.7
2010 10 21    06 21.84   -09 48.5    0.935    1.556   107.4    37.6    20.6
2010 10 26    06 18.39   -12 53.8    0.905    1.569   111.3    36.2    20.5
2010 10 31    06 13.29   -16 04.3    0.878    1.579   115.0    34.7    20.4
2010 11 05    06 06.39   -19 16.9    0.855    1.588   118.4    33.3    20.4
2010 11 10    05 57.58   -22 27.0    0.837    1.594   121.2    32.1    20.3
2010 11 15    05 46.83   -25 29.2    0.824    1.599   123.4    31.1    20.2
2010 11 20    05 34.25   -28 17.5    0.817    1.602   124.8    30.4    20.2
2010 11 25    05 20.04   -30 45.9    0.816    1.603   125.2    30.2    20.2
2010 11 30    05 04.58   -32 49.3    0.820    1.602   124.7    30.4    20.2

Valid HTML 4.01!